CW7857 Weather Reports


Display with metric or nautical units.
time (UTC)temp
F
wind
direction
speed
MPH
gust
MPH
rain 1hr
in
rain 24hr
in
rain mn
in
humidity
%
barometer
mb
20260508023033 62 189 2.0 6.0 0.00 0.00 0.00 88 1015.8
20260508022516 62 209 1.0 6.0 0.00 0.00 0.00 87 1015.8
20260508022014 62 152 2.0 5.0 0.00 0.00 0.00 87 1015.7
20260508021530 62 155 2.0 5.0 0.00 0.00 0.00 87 1015.6
20260508021012 62 179 1.0 5.0 0.00 0.00 0.00 86 1015.6
20260508020514 63 188 2.0 5.0 0.00 0.00 0.00 86 1015.6
20260508020035 63 167 2.0 5.0 0.00 0.00 0.00 86 1015.6
20260508015513 63 0 1.0 7.0 0.00 0.00 0.00 86 1015.5
20260508015012 63 198 2.0 7.0 0.00 0.00 0.00 85 1015.6
20260508014535 63 188 1.0 6.0 0.00 0.00 0.00 86 1015.6
20260508014014 63 0 1.0 6.0 0.00 0.00 0.00 86 1015.6
20260508013516 63 193 2.0 6.0 0.00 0.00 0.00 86 1015.6
20260508013035 63 153 1.0 6.0 0.00 0.00 0.00 86 1015.7
20260508012513 63 189 1.0 7.0 0.00 0.00 0.00 85 1015.6
20260508012013 63 139 2.0 7.0 0.00 0.00 0.00 85 1015.7
20260508011532 63 178 2.0 7.0 0.00 0.00 0.00 85 1015.6
20260508011011 64 138 3.0 7.0 0.00 0.00 0.00 84 1015.7
20260508010511 64 177 3.0 8.0 0.00 0.00 0.00 84 1015.6
20260508010046 64 155 3.0 11.0 0.00 0.00 0.00 83 1015.7
20260508005513 64 185 3.0 11.0 0.00 0.00 0.00 83 1015.7
20260508005015 64 163 3.0 8.0 0.00 0.00 0.00 83 1015.5
20260508004542 64 195 2.0 8.0 0.00 0.00 0.00 84 1015.5
20260508004013 64 127 3.0 8.0 0.00 0.00 0.00 84 1015.4
20260508003515 64 154 3.0 8.0 0.00 0.00 0.00 83 1015.5
20260508003029 64 170 4.0 8.0 0.00 0.00 0.00 83 1015.5
20260508002512 64 158 4.0 8.0 0.00 0.00 0.00 83 1015.5
20260508002013 65 188 4.0 8.0 0.00 0.00 0.00 82 1015.4
20260508001540 65 158 4.0 9.0 0.00 0.00 0.00 81 1015.4
20260508001010 65 167 3.0 9.0 0.00 0.00 0.00 81 1015.4
20260508000514 65 237 3.0 7.0 0.00 0.00 0.00 81 1015.4
20260508000032 65 180 2.0 8.0 0.00 0.00 0.00 82 1015.5
20260507235510 65 209 3.0 8.0 0.00 0.00 0.00 82 1015.6
20260507235011 65 189 2.0 7.0 0.00 0.00 0.00 83 1015.7
20260507234534 65 244 4.0 7.0 0.00 0.00 0.00 82 1015.7
20260507234013 65 194 2.0 6.0 0.00 0.00 0.00 82 1015.6
20260507233517 65 193 3.0 6.0 0.00 0.00 0.00 83 1015.6
20260507233032 65 244 2.0 9.0 0.00 0.00 0.00 84 1015.6
20260507232515 64 177 2.0 9.0 0.00 0.00 0.00 84 1015.6
20260507232017 64 164 3.0 8.0 0.00 0.00 0.00 83 1015.6
20260507231532 64 194 2.0 8.0 0.00 0.00 0.00 83 1015.7
20260507231010 64 238 4.0 8.0 0.00 0.00 0.00 83 1015.6
20260507230515 64 175 4.0 9.0 0.00 0.00 0.00 83 1015.7
20260507230032 64 182 4.0 9.0 0.00 0.00 0.00 83 1015.7
20260507225513 64 207 4.0 9.0 0.00 0.00 0.00 83 1015.8
20260507225011 64 178 4.0 10.0 0.00 0.00 0.00 83 1015.8
20260507224530 64 234 6.0 10.0 0.00 0.00 0.00 83 1015.8
20260507224010 64 249 5.0 10.0 0.00 0.00 0.00 82 1015.8
20260507223510 65 173 3.0 10.0 0.00 0.00 0.00 81 1015.8
20260507223034 65 252 3.0 8.0 0.00 0.00 0.00 82 1015.9
20260507222516 65 157 3.0 8.0 0.00 0.00 0.00 81 1015.9
20260507222013 65 267 3.0 10.0 0.00 0.00 0.00 82 1015.8
20260507221539 65 182 4.0 10.0 0.00 0.00 0.00 81 1015.8
20260507221013 65 250 4.0 11.0 0.00 0.00 0.00 82 1016.0
20260507220514 65 193 5.0 11.0 0.00 0.00 0.00 80 1016.0
20260507220032 65 196 3.0 10.0 0.00 0.00 0.00 81 1016.1
20260507215514 65 200 5.0 10.0 0.00 0.00 0.00 81 1016.1
20260507215014 65 239 4.0 11.0 0.00 0.00 0.00 82 1016.3
20260507214535 64 236 4.0 11.0 0.00 0.00 0.00 82 1016.4
20260507214013 64 254 5.0 11.0 0.00 0.00 0.00 82 1016.5
20260507213516 64 226 6.0 11.0 0.00 0.00 0.00 82 1016.6
20260507213033 65 250 5.0 13.0 0.00 0.00 0.00 81 1016.6
20260507212511 65 239 5.0 13.0 0.00 0.00 0.00 82 1016.6
20260507212017 65 217 6.0 13.0 0.00 0.00 0.00 81 1016.6
20260507211532 65 244 4.0 12.0 0.00 0.00 0.00 82 1016.6
20260507211018 65 242 5.0 13.0 0.00 0.00 0.00 82 1016.7
20260507210510 64 261 6.0 14.0 0.00 0.00 0.00 81 1016.7
20260507210038 65 184 6.0 14.0 0.00 0.00 0.00 82 1016.7
20260507205513 65 234 6.0 13.0 0.00 0.00 0.00 81 1016.7
20260507205013 65 246 6.0 13.0 0.00 0.00 0.00 81 1016.7
20260507204532 64 177 6.0 13.0 0.00 0.00 0.00 82 1016.8
20260507204014 64 248 6.0 12.0 0.00 0.00 0.00 82 1016.9
20260507203515 64 248 5.0 12.0 0.00 0.00 0.00 82 1016.9
20260507203047 64 236 6.0 13.0 0.00 0.00 0.00 82 1016.9
20260507202513 64 213 6.0 13.0 0.00 0.00 0.00 81 1016.8
20260507202011 65 196 5.0 11.0 0.00 0.00 0.00 81 1016.8
20260507201532 65 187 5.0 11.0 0.00 0.00 0.00 80 1016.7
20260507201013 65 188 4.0 12.0 0.00 0.00 0.00 81 1016.7
20260507200516 65 275 4.0 12.0 0.00 0.00 0.00 82 1016.8
20260507200031 64 248 6.0 12.0 0.00 0.00 0.00 82 1017.0
20260507195513 64 250 4.0 11.0 0.00 0.00 0.00 82 1016.8
20260507195013 64 292 6.0 11.0 0.00 0.00 0.00 81 1017.0
20260507194534 64 256 6.0 11.0 0.00 0.00 0.00 81 1016.8
20260507194014 64 244 5.0 11.0 0.00 0.00 0.00 82 1016.9
20260507193510 65 255 5.0 11.0 0.00 0.00 0.00 81 1017.0
20260507193037 65 229 5.0 10.0 0.00 0.00 0.00 80 1016.9
20260507192513 65 233 4.0 10.0 0.00 0.00 0.00 81 1017.0
20260507192015 65 250 6.0 10.0 0.00 0.00 0.00 80 1017.0
20260507191537 65 255 5.0 10.0 0.00 0.00 0.00 80 1017.1
20260507191017 65 250 4.0 10.0 0.00 0.00 0.00 81 1017.1
20260507190510 65 252 5.0 10.0 0.00 0.00 0.00 80 1017.1
20260507190031 65 238 5.0 10.0 0.00 0.00 0.00 79 1017.2
20260507185512 65 284 4.0 10.0 0.00 0.00 0.00 80 1017.3
20260507185012 64 0 4.0 10.0 0.00 0.00 0.00 82 1017.4
20260507184532 64 242 5.0 10.0 0.00 0.00 0.00 81 1017.6
20260507184014 65 201 5.0 11.0 0.00 0.00 0.00 81 1017.6
20260507183512 64 228 4.0 11.0 0.00 0.00 0.00 80 1017.7
20260507183029 65 259 4.0 11.0 0.00 0.00 0.00 81 1017.7
20260507182513 65 248 6.0 11.0 0.00 0.00 0.00 79 1017.7
20260507182013 66 245 3.0 9.0 0.00 0.00 0.00 80 1017.7
20260507181532 65 242 3.0 9.0 0.00 0.00 0.00 80 1017.7
20260507181015 65 192 3.0 11.0 0.00 0.00 0.00 80 1017.6
20260507180512 64 187 3.0 11.0 0.00 0.00 0.00 82 1017.6
20260507180038 64 261 5.0 11.0 0.00 0.00 0.00 80 1017.6
20260507175511 65 198 2.0 7.0 0.00 0.00 0.00 81 1017.8
20260507175017 65 254 3.0 7.0 0.00 0.00 0.00 80 1017.7
20260507174540 65 218 3.0 7.0 0.00 0.00 0.00 80 1017.8
20260507174015 65 221 3.0 7.0 0.00 0.00 0.00 81 1017.8
20260507173514 65 176 3.0 7.0 0.00 0.00 0.00 80 1017.8
20260507173052 64 217 2.0 9.0 0.00 0.00 0.00 81 1017.9
20260507172514 64 0 3.0 9.0 0.00 0.00 0.00 82 1017.9
20260507172013 64 159 2.0 7.0 0.00 0.00 0.00 82 1017.8
20260507171536 64 209 3.0 7.0 0.00 0.00 0.00 82 1017.9
20260507171014 63 229 2.0 8.0 0.00 0.00 0.00 83 1018.1
20260507170511 63 205 4.0 8.0 0.00 0.00 0.00 83 1018.0
20260507170038 63 245 3.0 7.0 0.00 0.00 0.00 84 1017.9
20260507165516 63 235 3.0 7.0 0.00 0.00 0.00 83 1018.0
20260507165012 63 234 3.0 7.0 0.00 0.00 0.00 83 1018.0
20260507164535 63 243 2.0 8.0 0.00 0.00 0.00 84 1017.9
20260507164013 63 240 3.0 8.0 0.00 0.00 0.00 85 1018.0
20260507163516 62 0 3.0 7.0 0.00 0.00 0.00 85 1018.0
20260507163032 62 233 3.0 7.0 0.00 0.00 0.00 85 1017.9
20260507162520 62 285 3.0 7.0 0.00 0.00 0.00 85 1017.9
20260507162016 62 238 2.0 7.0 0.00 0.00 0.00 85 1017.9
20260507161540 62 237 2.0 7.0 0.00 0.00 0.00 86 1017.9
20260507161013 62 246 2.0 7.0 0.00 0.00 0.00 87 1017.9
20260507160515 62 240 3.0 7.0 0.00 0.00 0.00 86 1017.9
20260507160030 62 234 3.0 6.0 0.00 0.00 0.00 86 1017.9
20260507155516 62 276 1.0 7.0 0.00 0.00 0.00 87 1017.9
20260507155016 61 283 3.0 7.0 0.00 0.00 0.00 87 1017.9
20260507154530 61 261 2.0 7.0 0.00 0.00 0.00 87 1017.9
20260507154012 61 261 1.0 7.0 0.00 0.00 0.00 88 1018.1
20260507153515 61 261 2.0 7.0 0.00 0.00 0.00 88 1018.1
20260507153033 61 261 2.0 7.0 0.00 0.00 0.00 88 1018.1
20260507152516 61 261 3.0 7.0 0.00 0.00 0.00 88 1018.1
20260507152017 61 230 3.0 7.0 0.00 0.00 0.00 87 1018.1
20260507151534 61 240 2.0 6.0 0.00 0.00 0.00 87 1018.1
20260507151011 61 248 1.0 4.0 0.00 0.00 0.00 88 1018.2
20260507150518 61 248 2.0 5.0 0.00 0.00 0.00 87 1018.1
20260507150038 61 248 1.0 5.0 0.00 0.00 0.00 87 1018.0
20260507145513 61 248 1.0 5.0 0.00 0.00 0.00 86 1018.0
20260507145023 61 248 2.0 5.0 0.00 0.00 0.00 86 1018.1
20260507144532 61 0 0.0 0.0 0.00 0.00 0.00 84 1018.0
20260507144014 61 0 0.0 0.0 0.00 0.00 0.00 83 1017.9
20260507143515 61 0 0.0 0.0 0.00 0.00 0.00 84 1017.9
20260507143038 60 0 0.0 0.0 0.00 0.00 0.00 84 1017.8
20260507142511 59 0 0.0 0.0 0.00 0.00 0.00 85 1017.8
20260507142024 58 0 0.0 0.0 0.00 0.00 0.00 87 1017.7
20260507141546 58 0 0.0 0.0 0.00 0.00 0.00 88 1017.8
20260507141010 57 0 0.0 0.0 0.00 0.00 0.00 88 1017.6
20260507140510 56 0 0.0 0.0 0.00 0.00 0.00 89 1017.8
20260507140034 56 0 0.0 0.0 0.00 0.00 0.00 90 1017.7
20260507135510 55 0 0.0 0.0 0.00 0.00 0.00 89 1017.6
20260507135015 55 0 0.0 0.0 0.00 0.00 0.00 90 1017.5
20260507134535 54 0 0.0 0.0 0.00 0.00 0.00 90 1017.5
20260507134014 54 0 0.0 1.0 0.00 0.00 0.00 91 1017.4
20260507133511 54 0 0.0 1.0 0.00 0.00 0.00 91 1017.3
20260507133057 54 0 0.0 0.0 0.00 0.00 0.00 90 1017.1
20260507132520 54 0 0.0 2.0 0.00 0.00 0.00 90 1017.1
20260507132012 54 0 0.0 2.0 0.00 0.00 0.00 90 1017.1
20260507131530 54 0 0.0 2.0 0.00 0.00 0.00 90 1017.1
20260507131010 54 0 0.0 0.0 0.00 0.00 0.00 90 1017.1
20260507130512 54 0 0.0 0.0 0.00 0.00 0.00 90 1017.1
20260507130036 54 0 0.0 2.0 0.00 0.00 0.00 90 1017.0
20260507125514 54 0 0.0 2.0 0.00 0.00 0.00 90 1017.0
20260507125013 54 95 1.0 2.0 0.00 0.00 0.00 90 1017.0
20260507124530 54 0 0.0 2.0 0.00 0.00 0.00 90 1017.0
20260507124013 54 0 0.0 1.0 0.00 0.00 0.00 90 1017.0
20260507123518 54 0 0.0 3.0 0.00 0.00 0.00 90 1017.0
20260507123038 54 95 1.0 3.0 0.00 0.00 0.00 90 1016.9
20260507122513 53 95 1.0 3.0 0.00 0.00 0.00 89 1017.0
20260507122014 54 95 0.0 3.0 0.00 0.00 0.00 89 1017.0
20260507121534 54 0 0.0 0.0 0.00 0.00 0.00 89 1016.9
20260507121011 54 0 0.0 0.0 0.00 0.00 0.00 89 1017.0
20260507120511 54 0 0.0 0.0 0.00 0.00 0.00 88 1016.9
20260507120035 54 0 0.0 0.0 0.00 0.00 0.00 88 1016.9
20260507115510 54 0 0.0 0.0 0.00 0.00 0.00 89 1016.9
20260507115013 55 0 0.0 0.0 0.00 0.00 0.00 88 1017.0
20260507114537 55 0 0.0 0.0 0.00 0.00 0.00 88 1017.0
20260507114014 55 0 0.0 0.0 0.00 0.00 0.00 88 1016.9
20260507113514 55 0 0.0 0.0 0.00 0.00 0.00 88 1016.8
20260507113034 56 0 0.0 0.0 0.00 0.00 0.00 88 1016.9
20260507112514 56 0 0.0 0.0 0.00 0.00 0.00 88 1017.0
20260507112018 56 0 0.0 0.0 0.00 0.00 0.00 88 1017.1
20260507111532 56 0 0.0 0.0 0.00 0.00 0.00 88 1017.2
20260507111013 56 0 0.0 0.0 0.00 0.00 0.00 88 1017.2
20260507110513 56 0 0.0 0.0 0.00 0.00 0.00 89 1017.1
20260507110039 55 0 0.0 0.0 0.00 0.00 0.00 88 1017.2
20260507105511 55 0 0.0 0.0 0.00 0.00 0.00 88 1017.3
20260507105011 55 0 0.0 0.0 0.00 0.00 0.00 88 1017.4
20260507104534 55 0 0.0 0.0 0.00 0.00 0.00 88 1017.3
20260507104014 56 0 0.0 0.0 0.00 0.00 0.00 88 1017.3
20260507103513 56 0 0.0 0.0 0.00 0.00 0.00 87 1017.3
20260507103039 56 0 0.0 0.0 0.00 0.00 0.00 87 1017.3
20260507102511 56 0 0.0 3.0 0.00 0.00 0.00 87 1017.2
20260507102017 56 0 0.0 3.0 0.00 0.00 0.00 87 1017.3
20260507101536 56 95 1.0 3.0 0.00 0.00 0.00 86 1017.2
20260507101011 56 84 1.0 2.0 0.00 0.00 0.00 87 1017.3
20260507100509 56 0 1.0 2.0 0.00 0.00 0.00 86 1017.1
20260507100036 56 0 1.0 4.0 0.00 0.00 0.00 86 1017.2
20260507095516 56 83 0.0 4.0 0.00 0.00 0.00 86 1017.3
20260507095014 56 80 2.0 4.0 0.00 0.00 0.00 86 1017.3
20260507094537 56 86 1.0 3.0 0.00 0.00 0.00 87 1017.3
20260507094020 56 86 0.0 2.0 0.00 0.00 0.00 86 1017.4
20260507093515 56 0 1.0 4.0 0.00 0.00 0.00 86 1017.4
20260507093032 56 86 1.0 4.0 0.00 0.00 0.00 86 1017.4
20260507092513 57 99 2.0 4.0 0.00 0.00 0.00 86 1017.4
20260507092013 57 103 0.0 2.0 0.00 0.00 0.00 86 1017.5
20260507091535 57 0 0.0 2.0 0.00 0.00 0.00 86 1017.5
20260507091011 57 103 0.0 6.0 0.00 0.00 0.00 86 1017.6
20260507090512 57 103 1.0 6.0 0.00 0.00 0.00 86 1017.7
20260507090030 57 96 0.0 2.0 0.00 0.00 0.00 87 1017.8
20260507085510 57 0 0.0 2.0 0.00 0.00 0.00 87 1017.8
20260507085013 57 0 0.0 3.0 0.00 0.00 0.00 87 1017.9
20260507084538 57 96 0.0 3.0 0.00 0.00 0.00 88 1018.0
20260507084012 57 96 0.0 4.0 0.00 0.00 0.00 88 1018.0
20260507083511 57 0 0.0 4.0 0.00 0.00 0.00 88 1018.0
20260507083032 57 96 2.0 4.0 0.00 0.00 0.00 88 1018.0
20260507082510 58 296 0.0 3.0 0.00 0.00 0.00 89 1018.0
20260507082014 58 0 0.0 3.0 0.00 0.00 0.00 89 1018.2
20260507081538 58 0 0.0 0.0 0.00 0.00 0.00 89 1018.2
20260507081013 58 0 0.0 0.0 0.00 0.00 0.00 89 1018.2
20260507080511 58 0 0.0 0.0 0.00 0.00 0.00 89 1018.2
20260507080031 58 0 0.0 0.0 0.00 0.00 0.00 88 1018.3
20260507075510 58 0 0.0 0.0 0.00 0.00 0.00 88 1018.2
20260507075011 58 0 0.0 0.0 0.00 0.00 0.00 88 1018.2
20260507074534 58 0 0.0 0.0 0.00 0.00 0.00 88 1018.1
20260507074013 58 0 0.0 0.0 0.00 0.00 0.00 87 1018.1
20260507073511 58 0 0.0 0.0 0.00 0.00 0.00 86 1018.1
20260507073032 59 0 0.0 0.0 0.00 0.00 0.00 87 1018.1
20260507072513 59 0 0.0 0.0 0.00 0.00 0.00 87 1018.2
20260507072013 59 0 0.0 0.0 0.00 0.00 0.00 87 1018.2
20260507071535 59 0 0.0 1.0 0.00 0.00 0.00 87 1018.2
20260507071013 59 0 0.0 2.0 0.00 0.00 0.00 87 1018.3
20260507070510 59 0 0.0 4.0 0.00 0.00 0.00 87 1018.2
20260507070041 59 0 1.0 4.0 0.00 0.00 0.00 87 1018.4
20260507065514 59 271 0.0 3.0 0.00 0.00 0.00 86 1018.3
20260507065016 59 271 1.0 3.0 0.00 0.00 0.00 86 1018.3
20260507064535 59 271 2.0 3.0 0.00 0.00 0.00 86 1018.3
20260507064015 59 300 1.0 3.0 0.00 0.00 0.00 86 1018.4
20260507063513 59 300 1.0 3.0 0.00 0.00 0.00 85 1018.5
20260507063035 59 300 1.0 3.0 0.00 0.00 0.00 85 1018.4
20260507062511 59 0 0.0 2.0 0.00 0.00 0.00 85 1018.5
20260507062016 59 0 0.0 2.0 0.00 0.00 0.00 84 1018.5
20260507061532 59 300 0.0 2.0 0.00 0.00 0.00 84 1018.4
20260507061020 60 300 0.0 4.0 0.00 0.00 0.00 84 1018.5
20260507060511 60 0 1.0 4.0 0.00 0.00 0.00 84 1018.6
20260507060030 60 300 1.0 3.0 0.00 0.00 0.00 83 1018.6
20260507055513 60 300 1.0 3.0 0.00 0.00 0.00 82 1018.7
20260507055011 60 300 1.0 3.0 0.00 0.00 0.00 82 1018.6
20260507054533 60 0 0.0 2.0 0.00 0.00 0.00 81 1018.5
20260507054013 60 300 1.0 2.0 0.00 0.00 0.00 81 1018.5
20260507053514 60 300 0.0 2.0 0.00 0.00 0.00 81 1018.5
20260507053032 60 0 0.0 3.0 0.00 0.00 0.00 80 1018.5
20260507052513 61 300 1.0 3.0 0.00 0.00 0.00 80 1018.5
20260507052012 61 300 0.0 2.0 0.00 0.00 0.00 79 1018.5
20260507051532 61 0 0.0 0.0 0.00 0.00 0.00 79 1018.5
20260507051010 61 0 0.0 0.0 0.00 0.00 0.00 78 1018.5
20260507050514 61 0 0.0 0.0 0.00 0.00 0.00 78 1018.5
20260507050035 61 0 0.0 0.0 0.00 0.00 0.00 77 1018.5
20260507045510 61 0 0.0 0.0 0.00 0.00 0.00 77 1018.4
20260507045015 61 0 0.0 0.0 0.00 0.00 0.00 77 1018.4
20260507044530 61 0 0.0 0.0 0.00 0.00 0.00 77 1018.4
20260507044015 61 0 0.0 1.0 0.00 0.00 0.00 77 1018.4
20260507043514 61 0 0.0 2.0 0.00 0.00 0.00 77 1018.5
20260507043031 61 0 0.0 3.0 0.00 0.00 0.00 77 1018.5
20260507042513 61 300 0.0 3.0 0.00 0.00 0.00 77 1018.5
20260507042021 61 300 0.0 3.0 0.00 0.00 0.00 78 1018.4
20260507041530 61 300 1.0 6.0 0.00 0.00 0.00 78 1018.5
20260507041015 61 300 1.0 6.0 0.00 0.00 0.00 78 1018.3
20260507040514 61 285 3.0 6.0 0.00 0.00 0.00 78 1018.3
20260507040037 61 286 1.0 4.0 0.00 0.00 0.00 77 1018.4
20260507035517 61 286 1.0 4.0 0.00 0.00 0.00 77 1018.3
20260507035014 61 292 0.0 4.0 0.00 0.00 0.00 76 1018.2
20260507034539 61 295 1.0 4.0 0.00 0.00 0.00 76 1018.2
20260507034010 61 281 1.0 4.0 0.00 0.00 0.00 76 1018.2
20260507033513 61 0 0.0 6.0 0.00 0.00 0.00 76 1018.0
20260507033044 61 269 2.0 7.0 0.00 0.00 0.00 76 1018.0
20260507032513 61 244 2.0 7.0 0.00 0.00 0.00 77 1018.0
20260507032017 61 287 2.0 8.0 0.00 0.00 0.00 79 1017.9
20260507031545 61 275 3.0 8.0 0.00 0.00 0.00 79 1017.8
20260507031016 62 269 4.0 8.0 0.00 0.00 0.00 78 1017.8
20260507030512 62 287 2.0 9.0 0.00 0.00 0.00 77 1017.9
20260507030033 62 300 3.0 9.0 0.00 0.00 0.00 77 1017.8
20260507025513 62 260 2.0 10.0 0.00 0.00 0.00 78 1017.7
20260507025018 62 304 4.0 10.0 0.00 0.00 0.00 79 1017.7
20260507024536 62 288 3.0 8.0 0.00 0.00 0.00 81 1017.5
20260507024013 62 274 2.0 9.0 0.00 0.00 0.00 81 1017.5
20260507023515 62 0 2.0 9.0 0.00 0.00 0.00 81 1017.6